Theta_e
317 318 319 319 320 320 320 319 320 321 319 318 319 320 321 321 329 334 335 336 336 338 337 336 337 339 342 344 346 348 349 349 350 350 350 350 350 351 352 352 351 350 348 351
318 319 319 320 320 320 320 319 320 319 319 317 318 317 320 322 326 332 335 336 336 337 337 336 336 339 342 344 347 348 349 349 350 351 351 350 350 350 350 351 352 352 350 350
319 318 319 321 320 320 319 318 320 320 320 318 317 317 318 320 320 326 332 335 335 335 336 337 336 338 342 343 347 348 350 350 350 351 351 351 351 350 349 350 351 352 351 351
318 318 323 318 319 321 320 320 318 318 320 320 320 320 319 318 321 319 324 332 334 333 334 335 337 337 340 343 346 349 350 350 350 351 351 352 352 352 351 350 349 350 351 351
320 319 318 319 332 336 333 323 320 319 319 319 320 319 319 317 317 319 320 326 332 333 333 334 335 339 340 342 344 349 351 351 351 352 352 353 354 354 353 353 352 351 351 351
316 322 323 324 333 333 334 332 330 331 323 321 318 319 322 319 320 320 322 324 327 330 331 331 332 334 339 343 344 347 351 352 353 353 354 354 354 355 355 355 355 355 353 352
314 321 321 325 333 332 331 330 332 333 332 331 319 322 322 320 319 321 322 323 324 326 333 334 334 334 340 343 345 346 348 352 354 355 355 355 355 355 356 356 357 357 357 355
313 321 323 329 332 336 330 331 333 335 335 333 333 320 320 323 323 324 323 323 324 328 329 335 337 340 342 344 343 346 347 351 353 355 356 357 357 357 358 358 358 359 358 357
315 317 320 329 330 329 328 332 332 333 334 341 343 323 324 332 337 339 346 346 328 321 338 343 341 340 339 341 343 346 347 349 353 355 356 357 358 358 359 359 359 359 359 357
321 322 329 331 329 328 329 331 331 332 341 345 335 341 348 350 352 355 354 354 353 353 352 351 357 350 346 346 348 345 343 347 348 350 354 357 358 358 359 360 360 360 358 355
319 317 326 331 329 329 330 331 331 333 339 349 351 353 353 352 352 351 351 350 351 352 352 351 353 356 360 358 352 349 345 343 345 348 349 348 352 357 358 354 360 355 353 348
314 317 319 328 327 328 330 330 331 333 342 341 345 347 348 348 346 346 346 348 348 349 350 350 350 353 357 360 356 354 352 350 344 339 338 341 340 333 340 340 336 337 335 333
314 322 324 326 327 327 329 329 330 332 334 340 340 343 344 343 341 338 340 342 342 344 344 342 342 347 350 354 354 350 344 341 339 338 339 339 338 334 330 330 332 337 334 334
314 321 327 326 327 326 327 328 328 332 333 334 337 341 341 339 339 339 339 337 339 341 342 341 341 342 345 348 348 345 343 342 339 339 338 336 335 334 332 332 330 330 333 331
323 324 324 326 325 327 326 327 328 329 332 335 334 337 339 339 339 338 336 334 335 335 334 336 337 339 341 342 342 341 340 338 339 340 340 338 337 336 336 334 331 322 323 331
325 326 325 326 327 327 327 326 327 328 328 333 334 335 335 335 333 333 333 334 334 333 331 332 335 337 339 340 338 339 339 339 338 336 334 332 331 331 330 328 324 324 324 319
325 325 325 324 323 323 323 324 326 326 327 328 332 332 332 330 329 328 328 328 328 328 329 333 335 339 340 339 336 334 336 334 334 332 331 330 330 329 327 328 328 327 322 324
323 323 324 323 324 325 326 325 326 327 328 328 328 329 329 328 328 326 325 324 324 323 326 328 331 336 337 339 338 338 337 335 333 332 331 330 328 327 328 328 327 324 322 323
326 327 327 326 326 326 326 326 326 325 326 325 326 326 325 325 324 323 322 321 322 320 318 325 327 328 330 333 336 337 337 335 334 332 332 330 329 331 330 328 324 323 321 321
323 324 323 323 323 324 325 325 325 325 325 326 326 325 325 324 320 315 314 315 313 313 315 315 315 318 324 327 331 333 334 334 333 332 331 330 328 325 326 326 324 322 322 322
316 316 317 318 320 319 320 323 324 324 322 321 321 319 317 315 316 316 315 315 315 316 316 316 315 316 319 323 324 327 327 329 329 329 329 328 328 326 324 324 325 325 325 323
310 312 314 314 313 312 312 314 320 320 320 319 318 316 314 313 313 313 313 314 316 316 316 315 314 314 320 322 325 326 327 325 326 327 327 328 327 327 326 325 323 322 323 323
307 307 307 307 308 308 308 311 312 312 311 311 312 315 314 313 312 313 314 314 315 316 315 314 314 313 314 316 320 323 325 327 326 325 326 327 326 326 326 326 325 325 325 322
305 305 306 307 307 307 308 308 307 306 306 306 306 307 310 312 310 310 309 311 314 315 313 314 315 315 314 314 314 313 313 313 314 320 322 322 322 322 323 325 324 322 322 322
304 304 303 304 304 304 304 305 304 304 304 304 304 304 304 305 305 303 304 303 306 309 309 310 312 313 313 313 313 313 312 311 311 310 311 313 312 311 310 309 311 314 314 316
302 303 303 303 302 302 302 303 302 302 303 303 302 302 302 301 301 301 301 301 301 302 303 303 305 306 308 310 311 312 312 312 310 310 309 308 308 306 305 305 305 307 307 308
298 299 300 301 301 302 301 300 300 299 300 301 300 300 300 299 299 299 298 299 299 300 300 302 303 304 305 306 307 308 310 310 310 310 310 309 309 309 309 307 305 303 303 303
Wind_Speed
4 11 8 12 16 14 20 21 13 10 15 10 9 10 15 13 7 6 9 8 10 13 14 15 21 29 33 34 34 36 37 37 42 42 43 43 42 42 43 45 46 46 46 46
4 10 14 13 14 17 14 12 17 12 9 9 13 9 7 10 9 9 10 10 9 9 10 10 18 26 32 33 37 41 40 43 41 40 40 41 40 41 44 44 44 44 44 45
4 6 9 12 13 13 10 10 12 17 11 7 9 10 13 13 10 11 12 12 11 12 12 12 21 29 30 35 35 38 39 39 38 39 40 41 38 38 43 43 38 43 44 43
4 4 8 7 3 10 20 18 14 9 13 17 16 14 16 17 18 14 11 11 11 11 12 19 26 27 31 28 34 36 37 36 33 35 38 37 39 42 42 39 41 41 40 44
4 6 10 18 4 4 4 13 13 11 10 13 18 10 8 9 11 15 13 14 15 19 21 24 26 33 29 28 30 30 30 32 34 38 38 35 37 41 40 36 37 40 39 37
4 6 7 3 3 5 5 5 7 10 11 14 6 7 9 8 8 13 11 7 10 19 19 18 27 25 29 27 28 29 33 39 40 41 40 40 42 39 37 36 36 32 33 38
13 5 6 4 6 3 8 6 14 8 11 12 10 12 14 5 8 9 10 12 17 14 15 27 30 29 24 24 26 42 39 35 35 35 37 38 34 32 33 31 29 32 33 32
6 6 15 1 5 4 3 6 13 17 15 15 15 17 9 7 5 6 8 5 8 5 3 6 13 22 18 21 41 25 27 30 31 34 35 34 35 32 34 35 36 34 30 29
9 6 5 5 5 5 5 7 10 16 20 16 18 15 8 4 6 5 5 5 6 8 10 11 6 9 5 1 6 9 17 22 19 18 22 25 28 25 20 22 24 25 24 27
6 8 7 3 5 4 8 6 15 18 15 10 6 8 9 8 7 9 7 9 13 14 12 10 15 9 5 10 8 9 17 19 17 15 14 15 15 15 15 16 17 15 16 16
8 20 12 5 3 6 6 12 16 16 6 9 9 13 16 13 11 11 10 11 15 14 10 12 15 16 14 8 3 4 6 10 13 17 20 17 12 11 13 9 16 15 14 8
9 9 7 3 4 8 5 9 13 13 8 13 11 15 16 14 11 11 12 14 14 15 14 12 15 16 15 11 9 14 14 12 15 20 21 22 24 29 29 30 37 37 36 35
19 10 8 5 4 4 4 8 11 11 7 9 7 10 13 15 12 12 15 16 15 13 12 12 12 14 13 12 15 17 20 20 20 20 18 19 25 30 23 30 25 13 6 3
18 17 8 9 3 4 8 8 10 7 7 9 7 6 13 15 14 15 13 15 18 20 22 21 18 17 13 12 14 17 18 20 21 21 22 21 20 19 21 21 14 18 19 22
15 14 4 7 7 9 8 11 15 12 10 10 9 3 8 16 16 13 18 19 19 19 19 19 18 17 12 10 14 14 17 17 20 23 24 27 27 24 18 8 9 16 21 25
5 13 11 9 11 13 13 13 14 12 10 11 11 6 10 19 18 19 17 15 16 9 14 17 18 14 8 5 8 12 15 18 17 17 18 15 11 10 13 14 10 11 18 18
14 11 11 11 11 13 10 11 6 4 8 10 9 10 17 17 19 18 19 21 20 22 20 21 19 10 11 9 8 10 11 11 13 15 16 16 18 16 10 8 11 14 16 25
11 9 7 10 10 9 6 7 7 8 7 4 12 14 13 14 11 11 15 18 24 27 29 23 19 12 10 9 10 11 10 10 11 13 17 15 12 15 18 15 15 17 22 27
12 11 9 10 7 10 10 11 10 12 13 12 13 11 15 18 19 19 20 23 20 16 22 17 17 17 15 9 6 8 10 10 11 12 14 16 16 21 19 18 14 19 25 29
15 16 15 16 20 15 13 13 16 17 18 18 18 17 12 16 17 23 26 19 19 13 16 17 14 12 8 7 10 8 10 12 12 14 14 10 9 9 16 22 23 23 24 24
22 19 19 18 16 24 23 20 22 17 22 22 17 14 15 19 21 18 20 10 22 22 23 20 18 16 11 6 6 9 11 15 15 14 13 11 8 5 6 10 12 14 13 16
14 16 17 17 17 18 23 24 24 26 24 23 22 22 21 18 19 21 20 16 21 24 27 25 22 19 17 11 9 7 4 4 10 14 10 10 12 7 8 3 5 11 16 21
17 19 20 17 13 17 27 25 24 24 22 21 21 20 18 18 19 11 7 16 22 27 30 30 27 24 27 25 19 14 10 7 4 5 8 13 15 8 5 3 3 11 17 20
20 22 19 23 29 27 15 20 22 22 21 26 27 25 19 17 24 23 21 23 27 29 32 31 32 32 32 30 28 28 24 19 16 12 9 7 7 3 2 5 7 5 7 9
21 22 25 23 18 12 17 14 21 21 25 28 29 27 26 25 24 21 26 30 32 33 34 34 35 35 35 33 31 28 28 29 23 22 20 19 17 17 16 15 14 12 10 10
20 16 18 21 16 15 15 21 19 20 21 22 25 24 26 27 26 30 30 29 33 34 34 33 32 32 32 32 33 33 32 32 32 34 31 31 28 26 24 21 20 20 19 19
22 24 20 21 22 21 20 22 21 18 20 18 21 24 25 26 28 28 29 29 28 29 28 31 30 29 27 26 26 25 24 23 24 25 26 26 26 25 25 25 26 27 27 28
Wind_Direction
258 282 262 250 264 268 225 226 220 226 227 227 235 228 242 231 244 236 241 220 204 199 197 197 195 194 197 199 195 195 197 200 206 205 208 210 210 212 216 222 225 228 228 228
278 269 278 272 260 254 250 262 243 235 245 208 215 220 252 232 217 228 238 228 215 209 202 193 191 193 194 194 194 191 195 204 205 204 205 209 209 209 214 217 219 221 221 224
258 295 314 285 249 251 243 220 221 229 226 228 242 224 225 243 230 217 227 228 208 206 201 202 197 195 194 197 194 195 200 207 203 201 203 207 207 206 211 212 210 216 219 219
244 323 249 249 310 268 243 226 222 229 212 214 229 234 224 220 224 228 220 226 225 220 210 204 201 198 205 196 194 197 204 204 202 202 207 204 203 208 212 211 209 210 214 217
209 219 295 301 1 14 14 259 225 191 224 220 225 245 265 213 214 221 218 218 219 219 214 212 201 202 193 192 197 199 204 202 202 201 205 204 206 209 211 209 210 213 214 213
164 207 229 180 256 254 166 254 32 6 263 219 173 218 250 232 204 224 221 206 212 225 232 207 211 196 187 191 189 198 201 205 204 203 203 204 208 210 209 208 212 213 215 217
239 253 282 246 258 278 189 280 317 313 280 288 236 214 219 214 218 221 213 214 229 196 203 216 214 198 187 187 193 210 207 205 204 204 205 208 209 207 205 210 212 211 214 216
222 238 235 45 297 171 306 296 302 303 290 274 267 268 234 222 244 238 237 225 201 192 96 92 202 187 186 186 213 211 207 202 202 203 204 205 202 202 203 199 205 209 208 205
198 219 248 146 214 257 256 282 305 305 294 267 263 250 236 150 89 75 69 67 86 111 81 58 120 181 160 225 243 194 210 212 212 218 217 209 202 204 213 209 207 212 209 215
318 239 222 204 278 228 250 17 321 304 296 270 210 126 97 80 65 74 55 62 75 78 72 54 52 80 198 211 198 175 199 208 206 202 202 209 214 212 201 204 215 219 216 211
286 289 287 202 258 271 327 23 321 323 359 36 103 105 106 97 91 87 84 76 74 76 73 60 54 52 48 58 111 180 171 179 171 169 167 152 147 171 181 200 202 179 169 130
248 249 259 229 280 296 29 10 326 325 32 46 63 87 93 88 86 86 79 82 79 76 75 69 63 60 53 63 97 116 104 114 137 139 136 128 111 97 104 111 96 98 92 83
259 282 259 205 199 321 43 1 343 337 342 64 60 86 88 89 76 73 70 67 71 76 81 84 75 67 68 83 108 117 117 119 124 130 128 125 130 127 120 115 116 102 60 117
252 253 220 246 178 43 28 18 4 325 22 33 12 81 94 90 78 70 59 56 56 51 44 42 47 49 59 77 93 108 117 126 125 128 126 129 131 142 141 144 156 159 164 157
244 220 167 192 127 79 55 39 43 7 4 43 2 46 111 103 98 95 88 78 69 56 47 47 42 39 50 82 106 119 126 129 136 143 151 156 157 164 185 205 191 184 172 166
155 143 157 136 105 97 71 49 53 5 341 31 37 295 110 79 84 82 75 86 89 67 55 60 49 37 50 70 110 125 135 142 145 146 138 139 146 152 159 156 183 137 119 142
117 107 117 115 108 95 112 155 177 151 5 24 43 49 73 80 67 61 58 64 67 71 69 69 74 64 86 101 99 107 111 123 130 134 128 140 146 135 131 144 105 100 124 147
96 109 114 119 124 130 114 80 76 83 78 67 57 70 69 70 78 64 55 67 67 54 47 58 68 83 92 105 111 114 125 131 127 121 127 134 138 146 142 127 131 132 145 152
77 84 87 83 88 89 77 60 46 48 57 70 70 53 53 57 58 56 57 53 46 43 26 47 62 67 72 69 102 119 118 121 126 128 140 145 159 155 150 161 159 156 163 167
54 72 60 60 55 58 62 58 64 55 38 49 63 63 56 49 70 74 65 57 47 47 50 46 50 61 65 74 81 105 129 112 112 127 139 146 156 155 153 167 170 168 170 173
43 45 46 49 48 45 48 64 72 65 56 52 59 64 66 57 55 70 65 58 43 49 52 48 41 35 52 71 77 94 96 112 117 117 111 96 83 98 155 172 174 171 177 185
38 53 58 55 50 46 45 54 67 67 53 43 42 55 61 52 57 59 63 64 63 61 54 42 42 44 50 68 89 73 50 127 126 122 110 89 87 61 73 117 213 191 197 198
41 42 43 46 55 56 52 50 60 64 62 54 49 52 56 57 46 43 47 50 69 67 62 55 56 54 55 61 68 77 75 76 84 118 130 132 131 137 123 75 235 215 214 205
42 39 42 45 47 44 43 35 51 55 63 63 58 54 58 65 52 46 57 67 72 69 61 57 59 61 59 53 56 60 66 74 68 77 83 76 71 98 246 211 241 221 206 203
43 44 43 44 43 36 40 42 57 43 50 52 50 49 53 56 75 57 59 57 64 68 60 58 59 57 53 51 51 49 51 56 63 62 72 78 69 65 64 65 71 84 91 101
37 42 49 48 46 46 52 56 56 43 51 58 50 49 55 60 59 67 64 61 64 63 63 56 52 53 54 54 52 51 51 54 56 63 64 66 65 62 63 64 66 72 70 71
41 39 38 40 33 40 51 57 57 45 49 58 62 52 59 60 59 56 56 54 51 58 54 60 58 56 54 54 54 52 55 60 65 67 72 73 73 74 74 72 71 71 71 70